[[{"header":{"parameterUnit":"m.s-1","parameterCategory":1,"la1":30.2991,"la2":30.254,"lo1":-89.0895,"lo2":-89.0444,"dy":0.0017,"dx":0.0017,"nx":28,"ny":28,"refTime":"2024-04-14T21:00:00:Z","depth":0,"parameterNumber":2,"parameterNumberName":"U-component_of_WINDS"},"data":[0,0,0,0,0,0,0,0,0,0,0,0,0,0,0,0,0,0,0,0,0,0,0,0,0,0,0,0,0,0,0,0,0,0,0,0,0,0,0,0,0,0,0,0,0,0,0,0,0,0,0,0,0,0,0,0,0,0,-0.3079,-0.308,0,-0.3139,-0.314,-0.3141,-0.3193,-0.3193,-0.3194,-0.3195,-0.3258,-0.3259,-0.3261,0,0,0,0,0,0,0,0,0,0,0,0,0,-0.3012,-0.3013,-0.3079,-0.308,-0.3081,-0.3139,-0.314,-0.3141,-0.3193,-0.3193,-0.3194,-0.3195,-0.3258,-0.3259,-0.3261,0,0,0,0,0,0,0,0,0,0,0,0,0,-0.3053,-0.3013,-0.3079,-0.3114,-0.3117,-0.3139,-0.314,-0.3141,-0.3193,-0.3194,-0.3194,-0.3195,-0.3257,-0.3259,-0.3261,-0.3254,0,0,-0.3266,-0.3267,0,0,0,0,0,0,0,0,-0.3051,-0.3056,-0.3108,-0.3111,-0.3115,-0.3159,-0.314,-0.3179,-0.3192,-0.3164,-0.3195,-0.3196,-0.3225,-0.3229,-0.3239,-0.3257,-0.326,-0.3266,-0.3267,-0.3268,-0.3269,0,0,0,0,0,0,0,-0.3048,-0.3054,-0.3103,-0.3108,-0.3113,-0.3127,-0.3134,-0.3147,-0.3189,-0.3167,-0.3171,-0.3177,-0.3227,-0.3237,-0.3241,-0.3261,-0.3266,-0.3268,-0.3269,-0.3269,-0.3277,-0.3276,0,0,0,0,0,0,-0.304,-0.3051,-0.3101,-0.3105,-0.3085,-0.3127,-0.3135,-0.3144,-0.3189,-0.3196,-0.3176,-0.3179,-0.3234,-0.3239,-0.3243,-0.3238,-0.3268,-0.327,-0.3271,-0.3278,-0.3277,-0.3276,0,0,0,0,0,0,-0.3038,-0.3044,-0.3099,-0.3079,-0.3087,-0.3128,-0.3138,-0.3145,-0.3155,-0.3196,-0.3204,-0.3178,-0.3234,-0.3241,-0.3251,-0.3241,-0.327,-0.3272,-0.3279,-0.3277,-0.3276,-0.3227,0,0,0,0,0,0,-0.3036,-0.3043,-0.304,-0.3078,-0.3088,-0.3104,-0.3137,-0.3146,-0.3158,-0.3162,-0.32,-0.3207,-0.3236,-0.3248,-0.3253,-0.3244,-0.3273,-0.328,-0.3278,-0.3277,-0.323,-0.3225,-0.322,0,0,0,0,0,-0.3033,-0.3024,-0.3039,-0.3045,-0.3085,-0.3104,-0.3109,-0.3141,-0.3157,-0.3154,-0.3181,-0.3206,-0.3241,-0.3249,-0.3254,-0.3246,-0.3281,-0.3279,-0.3277,-0.3232,-0.3226,-0.322,0,0,0,0,0,0,-0.2983,-0.303,-0.3047,-0.305,-0.3072,-0.3112,-0.3111,-0.3133,-0.3153,-0.3156,-0.3196,-0.3204,-0.321,-0.3229,-0.3236,-0.3242,-0.3264,-0.3264,-0.3229,-0.3223,-0.3218,-0.3213,-0.3275,0,0,0,0,0,-0.2973,-0.2983,-0.3024,-0.3022,-0.3033,-0.3069,-0.3079,-0.3102,-0.3127,-0.3137,-0.3164,-0.3188,-0.3205,-0.3215,-0.3233,-0.3234,-0.3243,-0.3231,-0.3226,-0.3221,-0.322,-0.3222,-0.3217,-0.327,-0.327,-0.327,0,0,-0.2951,-0.2977,-0.2982,-0.3013,-0.3033,-0.3044,-0.3077,-0.3087,-0.3096,-0.3139,-0.315,-0.3171,-0.3201,-0.3206,-0.321,-0.3222,-0.3208,-0.3219,-0.3215,-0.3216,-0.322,-0.3215,-0.321,-0.3268,-0.3269,-0.3269,0,0,-0.2916,-0.2937,-0.2938,-0.2958,-0.2988,-0.3013,-0.3013,-0.305,-0.3065,-0.3077,-0.3109,-0.3121,-0.3149,-0.3168,-0.3182,-0.3156,-0.318,-0.3161,-0.3134,-0.3136,-0.3132,-0.3128,-0.3119,-0.3115,-0.316,-0.3159,-0.3159,0,-0.2885,-0.2902,-0.2936,-0.2944,-0.2957,-0.2997,-0.2999,-0.3016,-0.305,-0.3059,-0.3072,-0.3108,-0.3131,-0.3142,-0.3135,-0.3145,-0.3147,-0.3156,-0.3129,-0.3126,-0.3123,-0.3115,-0.3111,-0.3157,-0.3157,-0.3157,-0.3158,0,-0.2863,-0.2874,-0.2872,-0.2903,-0.2916,-0.2921,-0.2957,-0.2966,-0.2988,-0.3012,-0.3023,-0.3052,-0.3076,-0.3081,-0.3103,-0.3095,-0.3102,-0.3122,-0.3145,-0.3115,-0.3108,-0.3105,-0.3153,-0.3154,-0.3155,-0.3155,0,0,-0.2797,-0.2848,-0.2847,-0.2861,-0.2898,-0.2908,-0.2915,-0.2938,-0.2945,-0.2968,-0.2975,-0.2998,-0.3017,-0.3032,-0.3057,-0.3059,-0.3036,-0.3079,-0.308,-0.3069,-0.3029,-0.3013,-0.3009,-0.3053,-0.3052,-0.3052,-0.3026,0,-0.2768,-0.2782,-0.2814,-0.2818,-0.283,-0.2867,-0.2874,-0.2897,-0.292,-0.2933,-0.2959,-0.2974,-0.2998,-0.3008,-0.3011,-0.3038,-0.3028,-0.304,-0.306,-0.306,-0.305,-0.3005,-0.2988,-0.2963,-0.3024,-0.3023,-0.3023,0,-0.2736,-0.2756,-0.2761,-0.2797,-0.2803,-0.2808,-0.2832,-0.2844,-0.2872,-0.2888,-0.2906,-0.2933,-0.2944,-0.2966,-0.2981,-0.2989,-0.2999,-0.3013,-0.3013,-0.3016,-0.3039,-0.3006,-0.2956,-0.2951,-0.3019,-0.3019,-0.302,0,-0.2687,-0.2715,-0.2722,-0.2734,-0.2776,-0.2779,-0.2797,-0.2825,-0.2837,-0.2859,-0.2867,-0.289,-0.2902,-0.2919,-0.2952,-0.2965,-0.2964,-0.2989,-0.2978,-0.2977,-0.2975,-0.2975,-0.2925,-0.2983,-0.2983,-0.2983,-0.2983,0,-0.2651,-0.2653,-0.2701,-0.2705,-0.2708,-0.2745,-0.2748,-0.277,-0.2795,-0.2804,-0.2839,-0.2848,-0.2891,-0.2905,-0.2931,-0.294,-0.2945,-0.2959,-0.2966,-0.2956,-0.2954,-0.2962,-0.2965,-0.2982,-0.2982,-0.2983,-0.2983,0,-0.2597,-0.2629,-0.2639,-0.2678,-0.2688,-0.2689,-0.2723,-0.2729,-0.2754,-0.2765,-0.2771,-0.281,-0.2828,-0.2863,-0.2891,-0.2909,-0.2911,-0.2924,-0.2901,-0.2906,-0.2893,-0.2893,-0.2846,-0.2842,-0.2903,-0.2902,-0.2902,0,-0.2571,-0.2573,-0.2613,-0.2621,-0.2637,-0.2651,-0.2663,-0.27,-0.2712,-0.2744,-0.2746,-0.2767,-0.2785,-0.2812,-0.2844,-0.2866,-0.2879,-0.2861,-0.2882,-0.2872,-0.2878,-0.2877,-0.2877,-0.2856,-0.2855,-0.2854,-0.2854,0,-0.2522,-0.2538,-0.2554,-0.2575,-0.2589,-0.2608,-0.2629,-0.2634,-0.2676,-0.2688,-0.2706,-0.272,-0.2749,-0.2769,-0.2796,-0.2815,-0.2841,-0.2847,-0.2845,-0.2834,-0.2821,-0.2827,-0.2888,-0.2847,-0.2848,-0.2848,-0.2849,-0.2849,-0.2481,-0.2485,-0.2513,-0.253,-0.2549,-0.2568,-0.2575,-0.2601,-0.2617,-0.2642,-0.2664,-0.268,-0.2709,-0.2747,-0.2765,-0.278,-0.2792,-0.279,-0.279,-0.2788,-0.2784,-0.2819,-0.2785,-0.2785,-0.2785,-0.2785,-0.2786,0,-0.2433,-0.2453,-0.2468,-0.2496,-0.251,-0.2533,-0.2557,-0.2567,-0.2581,-0.2605,-0.2623,-0.2644,-0.2664,-0.2697,-0.272,-0.2725,-0.2738,-0.273,-0.273,-0.2734,-0.2772,-0.277,-0.2719,-0.2719,-0.2719,-0.2719,-0.2719,-0.2719,-0.241,-0.2417,-0.2437,-0.2454,-0.2475,-0.2491,-0.2503,-0.252,-0.254,-0.2562,-0.2578,-0.26,-0.2628,-0.2653,-0.2673,-0.2683,-0.2689,-0.2677,-0.269,-0.2725,-0.2731,-0.2737,-0.2736,-0.2678,-0.2678,-0.2651,-0.2651,-0.2651]},{"header":{"parameterUnit":"m.s-1","parameterCategory":1,"la1":30.2991,"la2":30.254,"lo1":-89.0895,"lo2":-89.0444,"dy":0.0017,"dx":0.0017,"nx":28,"ny":28,"refTime":"2024-04-14T21:00:00:Z","depth":0,"parameterNumber":3,"parameterNumberName":"V-component_of_WINDS"},"data":[0,0,0,0,0,0,0,0,0,0,0,0,0,0,0,0,0,0,0,0,0,0,0,0,0,0,0,0,0,0,0,0,0,0,0,0,0,0,0,0,0,0,0,0,0,0,0,0,0,0,0,0,0,0,0,0,0,0,2.5436,2.5436,0,2.5435,2.5435,2.5435,2.5353,2.535,2.5348,2.5346,2.5347,2.5349,2.5351,0,0,0,0,0,0,0,0,0,0,0,0,0,2.5367,2.5368,2.5436,2.5436,2.5436,2.5435,2.5435,2.5435,2.5353,2.535,2.5348,2.5345,2.5347,2.5349,2.5352,0,0,0,0,0,0,0,0,0,0,0,0,0,2.5385,2.5369,2.5436,2.5395,2.5391,2.5435,2.5435,2.5435,2.5354,2.535,2.5347,2.5344,2.5346,2.5349,2.5352,2.5436,0,0,2.5361,2.5363,0,0,0,0,0,0,0,0,2.5384,2.5387,2.5401,2.5398,2.5394,2.5391,2.5411,2.5436,2.5354,2.5368,2.5346,2.5342,2.5365,2.5366,2.5373,2.5436,2.5436,2.5362,2.5363,2.5365,2.5366,0,0,0,0,0,0,0,2.5383,2.5387,2.5436,2.5401,2.5397,2.5376,2.5375,2.5415,2.5385,2.5366,2.536,2.5361,2.5362,2.537,2.5372,2.5436,2.5361,2.5364,2.5366,2.5367,2.5566,2.557,0,0,0,0,0,0,2.5387,2.5386,2.5436,2.5436,2.538,2.538,2.5379,2.5395,2.5384,2.5379,2.5364,2.5358,2.5367,2.5369,2.5372,2.5468,2.5365,2.5368,2.5369,2.5563,2.5567,2.5571,0,0,0,0,0,0,2.5386,2.5392,2.5436,2.5409,2.5413,2.5385,2.5403,2.5397,2.5405,2.5382,2.5376,2.5378,2.5364,2.5368,2.542,2.5467,2.5369,2.5372,2.5559,2.5564,2.5569,2.5663,0,0,0,0,0,0,2.5384,2.5392,2.5424,2.5411,2.5415,2.5484,2.5406,2.5399,2.541,2.5401,2.5394,2.5389,2.5362,2.5416,2.5423,2.547,2.5374,2.5555,2.5561,2.5567,2.5656,2.5671,2.5684,0,0,0,0,0,2.5382,2.5451,2.5426,2.5432,2.5454,2.5487,2.549,2.5456,2.5414,2.5446,2.5431,2.539,2.5461,2.5422,2.543,2.5478,2.5552,2.5559,2.5567,2.5649,2.5668,2.5684,0,0,0,0,0,0,2.5472,2.5449,2.5421,2.5488,2.549,2.5473,2.5512,2.5477,2.5492,2.5483,2.5441,2.544,2.5499,2.5494,2.5451,2.5558,2.5499,2.5509,2.5559,2.5577,2.559,2.559,2.5377,0,0,0,0,0,2.55,2.5528,2.5506,2.5568,2.557,2.5541,2.5554,2.5528,2.5529,2.5529,2.5518,2.5521,2.5544,2.556,2.558,2.5655,2.5651,2.5691,2.5705,2.5717,2.5726,2.5763,2.5781,2.5596,2.5596,2.5596,0,0,2.5557,2.5548,2.5569,2.5586,2.5584,2.5614,2.5543,2.5578,2.56,2.5535,2.5583,2.5575,2.5576,2.5639,2.5667,2.5637,2.5776,2.5727,2.5737,2.5739,2.5773,2.5791,2.5806,2.5602,2.5601,2.56,0,0,2.5677,2.5674,2.5724,2.5723,2.5721,2.5701,2.5713,2.5701,2.5693,2.5741,2.5692,2.5718,2.5758,2.576,2.5766,2.5885,2.5847,2.5892,2.5966,2.6003,2.6018,2.603,2.6071,2.6087,2.5901,2.5901,2.5902,0,2.575,2.5792,2.5754,2.5792,2.58,2.5741,2.5791,2.5793,2.5798,2.5805,2.5771,2.582,2.5816,2.5878,2.5907,2.5914,2.5926,2.5893,2.6018,2.6031,2.6042,2.6081,2.6097,2.5907,2.5906,2.5906,2.5905,0,2.588,2.5911,2.5951,2.5956,2.5969,2.6013,2.5981,2.5999,2.5971,2.5954,2.6003,2.5996,2.6013,2.6025,2.6,2.6084,2.6065,2.6026,2.5966,2.6066,2.6101,2.6116,2.5915,2.5913,2.5911,2.591,0,0,2.6059,2.604,2.6055,2.6056,2.6049,2.6072,2.6112,2.6127,2.6143,2.6148,2.6181,2.6216,2.6179,2.6186,2.6159,2.6192,2.6285,2.6148,2.6147,2.6173,2.6376,2.6405,2.6423,2.6259,2.6262,2.6264,2.6375,0,2.6174,2.6241,2.6207,2.6279,2.6306,2.625,2.6285,2.6284,2.627,2.6291,2.6274,2.6299,2.6249,2.6253,2.6282,2.6267,2.6325,2.6259,2.6289,2.6291,2.629,2.6442,2.6473,2.6578,2.6389,2.6392,2.6393,0,2.6318,2.6327,2.6402,2.6387,2.6397,2.643,2.644,2.646,2.6458,2.6445,2.6452,2.6417,2.6456,2.6396,2.6449,2.6405,2.6415,2.6409,2.6412,2.6414,2.6348,2.6446,2.6611,2.6627,2.6415,2.6413,2.6412,0,2.6439,2.647,2.6518,2.6521,2.6506,2.6529,2.6524,2.6519,2.6529,2.6538,2.6545,2.6559,2.6567,2.6578,2.6548,2.6508,2.6604,2.6543,2.6594,2.6595,2.6617,2.6616,2.6785,2.6625,2.6625,2.6624,2.6624,0,2.6571,2.6618,2.6572,2.6602,2.6653,2.6612,2.6664,2.6653,2.6648,2.6675,2.6628,2.6653,2.6612,2.6634,2.661,2.6657,2.6661,2.6651,2.6644,2.6655,2.6656,2.6661,2.6653,2.6629,2.6628,2.6627,2.6626,0,2.6715,2.6686,2.6734,2.6715,2.6711,2.675,2.6733,2.676,2.6741,2.6775,2.6781,2.6752,2.6775,2.6745,2.6766,2.675,2.6813,2.6796,2.6814,2.6808,2.6861,2.6856,2.7039,2.7061,2.6888,2.6889,2.6891,0,2.6801,2.6835,2.6819,2.6833,2.683,2.6853,2.6863,2.6824,2.6837,2.6836,2.6862,2.6881,2.6894,2.6933,2.6914,2.6929,2.6912,2.6974,2.6914,2.6923,2.6911,2.6909,2.6912,2.6987,2.6989,2.6991,2.6992,0,2.6956,2.6939,2.6955,2.6965,2.6978,2.6985,2.6988,2.7002,2.6962,2.6978,2.7,2.701,2.703,2.7049,2.7059,2.7053,2.7017,2.7011,2.7024,2.7035,2.7044,2.7039,2.6847,2.7007,2.7006,2.7005,2.7004,2.7003,2.7073,2.71,2.7092,2.7111,2.7109,2.7113,2.7136,2.7119,2.7137,2.7149,2.7125,2.7153,2.7149,2.7158,2.7157,2.7178,2.7151,2.7169,2.7174,2.7179,2.7187,2.7041,2.718,2.7179,2.7179,2.7179,2.7178,0,2.7224,2.7216,2.7233,2.7238,2.7253,2.7215,2.7216,2.7231,2.7256,2.7254,2.7267,2.7292,2.7309,2.7291,2.7306,2.7326,2.7309,2.7331,2.7329,2.7328,2.7211,2.7198,2.7344,2.7344,2.7344,2.7344,2.7344,2.7344,2.7305,2.7349,2.7331,2.7373,2.7365,2.739,2.7394,2.7397,2.7395,2.7425,2.7438,2.7426,2.7418,2.7431,2.7445,2.7439,2.7446,2.7474,2.7463,2.7353,2.7337,2.7321,2.7309,2.7476,2.7476,2.7578,2.7579,2.758]}]]